Weather History for Liberal, KS

Change the Weather History Date:

Thursday, January 16, 2014

  Actual Average Record
Temperature  
Mean Temperature 42 °F -  
Max Temperature 53 °F 49 °F 73 °F (1990)
Min Temperature 32 °F 20 °F 2 °F (1984)
Degree Days  
Heating Degree Days 22    
Moisture  
Dew Point 16 °F    
Average Humidity 37    
Maximum Humidity 60    
Minimum Humidity 21    
Precipitation  
Precipitation 0.00 in - - ()
Sea Level Pressure  
Sea Level Pressure 30.16 in    
Wind  
Wind Speed 16 mph (NNW)    
Max Wind Speed 34 mph    
Max Gust Speed 45 mph    
Visibility 9 miles    
Events      
Averages and records for this station are not official NWS values.
T = Trace of Precipitation, MM = Missing Value Source: NWS Daily Summary

Daily Weather History Graph

Daily Weather History Graph

Search for Another Location

Airport:

Trip Planner

Search our weather history database for the weather conditions in past years. The results will help you decide how hot, cold, wet, or windy it might be!

Date:

Astronomy

Jan. 16, 2014 Rise Set
Actual Time 7:55 AM CST 5:51 PM CST
Civil Twilight 7:27 AM CST 6:20 PM CST
Nautical Twilight 6:55 AM CST 6:51 PM CST
Astronomical Twilight 6:24 AM CST 7:23 PM CST
Moon 6:42 PM CST (1/16) 7:52 AM CST (1/16)
Length of Visible Light 10h 52m
Length of Day
9h 55m
Full, 100% of the Moon is Illuminated
Jan 16
Full
Jan 23
Last Quarter
Jan 30
New
Feb 6
First Quarter
Feb 14
Full

Hourly Weather History & Observations

Time (CST) Temp. Windchill Dew Point Humidity Pressure Visibility Wind Dir Wind Speed Gust Speed Precip Events Conditions
12:15 AM 35.6 °F 27.5 °F 19.4 °F 52% 30.01 in 10.0 mi WNW 11.5 mph - N/A   Clear
12:35 AM 37.4 °F 29.8 °F 19.4 °F 48% 30.02 in 10.0 mi NW 11.5 mph - N/A   Clear
12:55 AM 37.4 °F 30.3 °F 19.4 °F 48% 30.03 in 10.0 mi NW 10.4 mph - N/A   Clear
1:15 AM 35.6 °F 28.0 °F 17.6 °F 48% 30.02 in 10.0 mi WNW 10.4 mph - N/A   Clear
1:35 AM 33.8 °F 25.8 °F 17.6 °F 52% 30.03 in 10.0 mi WNW 10.4 mph - N/A   Clear
1:55 AM 33.8 °F 25.3 °F 17.6 °F 52% 30.03 in 10.0 mi WNW 11.5 mph - N/A   Clear
2:15 AM 33.8 °F 25.3 °F 17.6 °F 52% 30.03 in 10.0 mi WNW 11.5 mph - N/A   Clear
2:35 AM 33.8 °F 25.3 °F 19.4 °F 56% 30.04 in 10.0 mi WNW 11.5 mph - N/A   Clear
2:55 AM 33.8 °F 25.8 °F 19.4 °F 56% 30.04 in 10.0 mi WNW 10.4 mph - N/A   Clear
3:15 AM 33.8 °F 24.8 °F 19.4 °F 56% 30.05 in 10.0 mi WNW 12.7 mph - N/A   Clear
3:35 AM 33.8 °F 25.8 °F 19.4 °F 56% 30.06 in 10.0 mi WNW 10.4 mph - N/A   Clear
3:55 AM 32.0 °F 24.2 °F 17.6 °F 55% 30.06 in 10.0 mi NW 9.2 mph - N/A   Clear
4:15 AM 33.8 °F 24.8 °F 21.2 °F 60% 30.06 in 10.0 mi WNW 12.7 mph - N/A   Clear
4:35 AM 35.6 °F 26.6 °F 19.4 °F 52% 30.06 in 10.0 mi WNW 13.8 mph - N/A   Clear
4:55 AM 35.6 °F 26.2 °F 19.4 °F 52% 30.06 in 10.0 mi WNW 15.0 mph - N/A   Clear
5:15 AM 35.6 °F 27.1 °F 17.6 °F 48% 30.06 in 10.0 mi WNW 12.7 mph - N/A   Clear
5:35 AM 33.8 °F 25.8 °F 17.6 °F 52% 30.07 in 10.0 mi WNW 10.4 mph - N/A   Clear
5:55 AM 32.0 °F 21.6 °F 17.6 °F 55% 30.07 in 10.0 mi WNW 15.0 mph - N/A   Clear
6:15 AM 33.8 °F 24.8 °F 17.6 °F 52% 30.08 in 10.0 mi NW 12.7 mph - N/A   Clear
6:35 AM 33.8 °F 24.3 °F 17.6 °F 52% 30.09 in 10.0 mi NW 13.8 mph - N/A   Clear
6:55 AM 35.6 °F 27.5 °F 19.4 °F 52% 30.11 in 10.0 mi NNW 11.5 mph - N/A   Clear
7:15 AM 33.8 °F 26.4 °F 17.6 °F 52% 30.12 in 10.0 mi NW 9.2 mph - N/A   Clear
7:35 AM 33.8 °F 23.5 °F 17.6 °F 52% 30.15 in 10.0 mi NNW 16.1 mph - N/A   Clear
7:55 AM 37.4 °F 26.9 °F 21.2 °F 52% 30.17 in 10.0 mi NNW 20.7 mph - N/A   Clear
8:15 AM 37.4 °F 27.5 °F 19.4 °F 48% 30.19 in 10.0 mi NNW 18.4 mph - N/A   Clear
8:35 AM 35.6 °F 27.1 °F 17.6 °F 48% 30.20 in 10.0 mi NNW 12.7 mph - N/A   Clear
8:55 AM 35.6 °F 28.0 °F 19.4 °F 52% 30.20 in 10.0 mi NNW 10.4 mph - N/A   Clear
9:15 AM 35.6 °F 29.2 °F 19.4 °F 52% 30.21 in 10.0 mi NNW 8.1 mph - N/A   Clear
9:35 AM 39.2 °F 33.0 °F 21.2 °F 49% 30.22 in 10.0 mi NNW 9.2 mph - N/A   Clear
9:55 AM 42.8 °F 34.8 °F 24.8 °F 49% 30.23 in 10.0 mi NNW 17.3 mph 28.8 mph N/A   Clear
10:15 AM 44.6 °F 35.9 °F 23.0 °F 43% 30.22 in 10.0 mi North 23.0 mph 27.6 mph N/A   Clear
10:35 AM 46.4 °F 38.5 °F 21.2 °F 37% 30.22 in 10.0 mi NNW 21.9 mph 29.9 mph N/A   Clear
10:55 AM 46.4 °F 37.4 °F 19.4 °F 34% 30.22 in 10.0 mi NNW 28.8 mph 36.8 mph N/A   Clear
11:15 AM 48.2 °F - 17.6 °F 30% 30.22 in 10.0 mi NNW 23.0 mph 34.5 mph N/A   Clear
11:35 AM 48.2 °F - 17.6 °F 30% 30.21 in 10.0 mi NNW 31.1 mph 35.7 mph N/A   Clear
11:55 AM 50.0 °F - 15.8 °F 26% 30.20 in 10.0 mi NNW 27.6 mph 36.8 mph N/A   Clear
12:15 PM 51.8 °F - 15.8 °F 24% 30.19 in 10.0 mi North 29.9 mph 39.1 mph N/A   Clear
12:35 PM 51.8 °F - 15.8 °F 24% 30.19 in 10.0 mi North 32.2 mph 39.1 mph N/A   Clear
12:55 PM 51.8 °F - 15.8 °F 24% 30.18 in 10.0 mi North 34.5 mph 44.9 mph N/A   Clear
1:15 PM 51.8 °F - 15.8 °F 24% 30.17 in 9.0 mi NNW 29.9 mph 38.0 mph N/A   Clear
1:35 PM 51.8 °F - 15.8 °F 24% 30.17 in 9.0 mi NNW 27.6 mph 36.8 mph N/A   Clear
1:55 PM 51.8 °F - 15.8 °F 24% 30.16 in 9.0 mi NNW 27.6 mph 38.0 mph N/A   Clear
2:15 PM 53.6 °F - 15.8 °F 22% 30.15 in 9.0 mi NNW 27.6 mph 38.0 mph N/A   Clear
2:35 PM 53.6 °F - 15.8 °F 22% 30.15 in 7.0 mi NNW 28.8 mph 38.0 mph N/A   Clear
2:55 PM 53.6 °F - 15.8 °F 22% 30.15 in 7.0 mi NNW 31.1 mph 38.0 mph N/A   Clear
3:15 PM 51.8 °F - 15.8 °F 24% 30.14 in 7.0 mi NNW 28.8 mph 36.8 mph N/A   Clear
3:35 PM 51.8 °F - 15.8 °F 24% 30.14 in 5.0 mi NNW 32.2 mph 41.4 mph N/A   Clear
3:55 PM 51.8 °F - 14.0 °F 22% 30.14 in 4.0 mi NNW 33.4 mph 39.1 mph N/A   Clear
4:15 PM 51.8 °F - 14.0 °F 22% 30.14 in 4.0 mi North 29.9 mph 41.4 mph N/A   Clear
4:35 PM 51.8 °F - 12.2 °F 21% 30.15 in 4.0 mi North 28.8 mph 42.6 mph N/A   Clear
4:55 PM 50.0 °F - 12.2 °F 22% 30.16 in 4.0 mi North 27.6 mph 35.7 mph N/A   Clear
5:15 PM 48.2 °F - 12.2 °F 24% 30.17 in 5.0 mi North 19.6 mph 29.9 mph N/A   Clear
5:35 PM 46.4 °F 37.4 °F 12.2 °F 25% 30.18 in 5.0 mi North 28.8 mph - N/A   Clear
5:55 PM 46.4 °F 37.7 °F 10.4 °F 23% 30.18 in 8.0 mi NNW 26.5 mph 36.8 mph N/A   Clear
6:15 PM 46.4 °F 38.5 °F 8.6 °F 22% 30.19 in 10.0 mi North 21.9 mph 27.6 mph N/A   Clear
6:35 PM 44.6 °F 37.4 °F 10.4 °F 25% 30.20 in 10.0 mi NNW 16.1 mph - N/A   Clear
6:55 PM 44.6 °F 36.9 °F 10.4 °F 25% 30.20 in 8.0 mi NNW 18.4 mph 21.9 mph N/A   Clear
7:15 PM 46.4 °F 37.9 °F 12.2 °F 25% 30.21 in 8.0 mi NNW 25.3 mph 34.5 mph N/A   Partly Cloudy
7:35 PM 44.6 °F 36.4 °F 10.4 °F 25% 30.21 in 8.0 mi NNW 20.7 mph - N/A   Clear
7:55 PM 44.6 °F 38.1 °F 10.4 °F 25% 30.22 in 8.0 mi NNW 13.8 mph - N/A   Clear
8:15 PM 42.8 °F 37.5 °F 10.4 °F 27% 30.22 in 8.0 mi NW 9.2 mph - N/A   Clear
8:35 PM 42.8 °F 36.6 °F 12.2 °F 29% 30.23 in 10.0 mi NW 11.5 mph - N/A   Clear
8:55 PM 42.8 °F 36.6 °F 12.2 °F 29% 30.23 in 10.0 mi NW 11.5 mph - N/A   Clear
9:15 PM 42.8 °F 37.5 °F 12.2 °F 29% 30.25 in 10.0 mi North 9.2 mph - N/A   Clear
9:35 PM 41.0 °F 33.5 °F 12.2 °F 31% 30.26 in 10.0 mi North 13.8 mph - N/A   Clear
9:55 PM 41.0 °F 33.1 °F 10.4 °F 29% 30.27 in 10.0 mi North 15.0 mph - N/A   Clear
10:15 PM 41.0 °F 33.1 °F 10.4 °F 29% 30.27 in 10.0 mi North 15.0 mph - N/A   Clear
10:35 PM 39.2 °F 30.8 °F 8.6 °F 28% 30.28 in 10.0 mi North 15.0 mph - N/A   Partly Cloudy
10:55 PM 39.2 °F 31.2 °F 8.6 °F 28% 30.28 in 10.0 mi NNW 13.8 mph - N/A   Partly Cloudy
11:15 PM 39.2 °F 31.2 °F 8.6 °F 28% 30.28 in 10.0 mi North 13.8 mph - N/A   Partly Cloudy
11:35 PM 39.2 °F 30.5 °F 8.6 °F 28% 30.29 in 10.0 mi North 16.1 mph 19.6 mph N/A   Partly Cloudy
11:55 PM 37.4 °F 28.5 °F 8.6 °F 30% 30.29 in 10.0 mi North 15.0 mph - N/A   Clear